This is the latest recevied weather packets stored in our database for station/object HB9KBJ-4. If no packets are shown the sender has not sent any weather packets the latest 10 day(s).
| Time | Temp. | Humidity | Pressure | Rain* | Wind** | Luminosity | Snow |
|---|---|---|---|---|---|---|---|
| 1777206837 | 22.22° C | 28% | - | 0 mm | - | - | - |
| 1777206536 | 22.78° C | 28% | - | 0 mm | - | - | - |
| 1777205936 | 22.22° C | 28% | - | 0 mm | - | - | - |
| 1777205035 | 21.67° C | 30% | - | 0 mm | - | - | - |
| 1777204735 | 21.11° C | 30% | - | 0 mm | - | - | - |
| 1777204132 | 21.11° C | 29% | - | 0 mm | - | - | - |
| 1777203832 | 21.67° C | 30% | - | 0 mm | - | - | - |
| 1777203530 | 21.11° C | 33% | - | 0 mm | - | - | - |
| 1777203230 | 20.56° C | 33% | - | 0 mm | - | - | - |
| 1777202329 | 20° C | 34% | - | 0 mm | - | - | - |
| 1777202029 | 19.44° C | 33% | - | 0 mm | - | - | - |
| 1777201729 | 19.44° C | 35% | - | 0 mm | - | - | - |
| 1777201428 | 19.44° C | 37% | - | 0 mm | - | - | - |
| 1777201128 | 18.33° C | 37% | - | 0 mm | - | - | - |
| 1777200828 | 18.33° C | 37% | - | 0 mm | - | - | - |
| 1777200528 | 17.78° C | 38% | - | 0 mm | - | - | - |
| 1777200227 | 17.22° C | 39% | - | 0 mm | - | - | - |
| 1777199927 | 16.67° C | 40% | - | 0 mm | - | - | - |
| 1777199627 | 16.67° C | 43% | - | 0 mm | - | - | - |
| 1777199327 | 16.67° C | 43% | - | 0 mm | - | - | - |
| 1777199026 | 16.67° C | 42% | - | 0 mm | - | - | - |
| 1777198726 | 16.11° C | 42% | - | 0 mm | - | - | - |
| 1777198125 | 16.11° C | 43% | - | 0 mm | - | - | - |
| 1777197825 | 16.11° C | 44% | - | 0 mm | - | - | - |
| 1777197525 | 15.56° C | 42% | - | 0 mm | - | - | - |
* Rain since midnight (hover to see other rain measurements)
** Current wind speed in m/s (hover to see current wind gust speed)